{"data":{"norad_id":63717,"epoch":"2026-09-20T19:52:03.832032Z","epoch_age_seconds":124318,"freshness":"FRESH","line1":"1 63717U 25087W   26263.82782213  .00023678  00000+0  70951-3 0  9998","line2":"2 63717  53.1622  31.9191 0000962  82.1070 278.0042 15.34408708 79092","mean_motion":15.34408708,"eccentricity":9.62e-5,"inclination_deg":53.1622,"raan_deg":31.9191,"arg_perigee_deg":82.107,"mean_anomaly_deg":278.0042,"bstar":0.00070951,"rev_number":7909,"period_min":93.847225481205,"perigee_km":462.01927197711,"apogee_km":463.33544465965,"semimajor_km":6840.8143583184,"source":"CELESTRAK","updated_at":"2026-09-21T09:00:35.090876Z"}}